| time (UTC) | temp C | wind direction | speed KPH | gust KPH | rain 1hr cm | rain 24hr cm | rain mn cm | humidity % | barometer mb |
| 20260505041559 | 22 | 51 | 4.8 | 11.3 | 0.00 | 0.00 | 0.00 | 61 | 1004.0 |
| 20260505040108 | 22 | 32 | 3.2 | 6.4 | 0.00 | 0.00 | 0.00 | 62 | 1004.0 |
| 20260505034604 | 23 | 103 | 0.0 | 8.0 | 0.00 | 0.00 | 0.00 | 61 | 1003.3 |
| 20260505033100 | 23 | 0 | 1.6 | 6.4 | 0.00 | 0.00 | 0.00 | 59 | 1003.3 |
| 20260505031601 | 23 | 134 | 0.0 | 12.9 | 0.00 | 0.00 | 0.00 | 58 | 1003.4 |
| 20260505024601 | 25 | 131 | 1.6 | 11.3 | 0.00 | 0.00 | 0.00 | 51 | 1003.0 |
| 20260505023056 | 23 | 133 | 3.2 | 8.0 | 0.00 | 0.00 | 0.00 | 54 | 1002.5 |
| 20260505021602 | 24 | 214 | 1.6 | 12.9 | 0.00 | 0.00 | 0.00 | 52 | 1002.7 |
| 20260505020059 | 25 | 120 | 3.2 | 8.0 | 0.00 | 0.00 | 0.00 | 51 | 1002.6 |
| 20260505014606 | 25 | 137 | 0.0 | 8.0 | 0.00 | 0.00 | 0.00 | 50 | 1002.8 |
| 20260505013059 | 25 | 0 | 1.6 | 8.0 | 0.00 | 0.00 | 0.00 | 49 | 1002.6 |
| 20260505011556 | 26 | 0 | 0.0 | 8.0 | 0.00 | 0.00 | 0.00 | 46 | 1002.2 |
| 20260505010100 | 26 | 0 | 0.0 | 8.0 | 0.00 | 0.00 | 0.00 | 44 | 1001.8 |
| 20260505004559 | 26 | 128 | 0.0 | 4.8 | 0.00 | 0.00 | 0.00 | 43 | 1001.6 |
| 20260505003057 | 27 | 155 | 1.6 | 9.7 | 0.00 | 0.00 | 0.00 | 42 | 1001.7 |
| 20260505001556 | 27 | 205 | 1.6 | 9.7 | 0.00 | 0.00 | 0.00 | 41 | 1001.6 |
| 20260505000059 | 28 | 128 | 1.6 | 12.9 | 0.00 | 0.00 | 0.00 | 39 | 1001.6 |
| 20260504234558 | 28 | 178 | 1.6 | 9.7 | 0.00 | 0.00 | 0.00 | 38 | 1001.7 |
| 20260504233058 | 28 | 180 | 3.2 | 11.3 | 0.00 | 0.00 | 0.00 | 36 | 1002.0 |
| 20260504231559 | 29 | 113 | 4.8 | 16.1 | 0.00 | 0.00 | 0.00 | 36 | 1001.8 |
| 20260504230058 | 30 | 126 | 1.6 | 12.9 | 0.00 | 0.00 | 0.00 | 34 | 1001.7 |
| 20260504224559 | 30 | 84 | 0.0 | 8.0 | 0.00 | 0.00 | 0.00 | 33 | 1001.7 |
| 20260504223102 | 30 | 126 | 0.0 | 6.4 | 0.00 | 0.00 | 0.00 | 32 | 1001.8 |
| 20260504221558 | 30 | 79 | 1.6 | 9.7 | 0.00 | 0.00 | 0.00 | 31 | 1001.9 |
| 20260504214605 | 31 | 105 | 1.6 | 9.7 | 0.00 | 0.00 | 0.00 | 27 | 1002.2 |
| 20260504213058 | 30 | 96 | 3.2 | 6.4 | 0.00 | 0.00 | 0.00 | 27 | 1002.4 |
| 20260504211556 | 31 | 160 | 1.6 | 8.0 | 0.00 | 0.00 | 0.00 | 27 | 1002.5 |
| 20260504210106 | 30 | 75 | 3.2 | 12.9 | 0.00 | 0.00 | 0.00 | 29 | 1002.8 |
| 20260504204623 | 30 | 97 | 3.2 | 11.3 | 0.00 | 0.00 | 0.00 | 28 | 1002.9 |
| 20260504203134 | 30 | 83 | 1.6 | 9.7 | 0.00 | 0.00 | 0.00 | 30 | 1003.2 |
| 20260504201557 | 29 | 102 | 3.2 | 9.7 | 0.00 | 0.00 | 0.00 | 34 | 1003.4 |
| 20260504200058 | 29 | 0 | 1.6 | 8.0 | 0.00 | 0.00 | 0.00 | 33 | 1003.6 |
| 20260504194559 | 28 | 101 | 3.2 | 8.0 | 0.00 | 0.00 | 0.00 | 35 | 1003.7 |
| 20260504193101 | 28 | 93 | 3.2 | 8.0 | 0.00 | 0.00 | 0.00 | 35 | 1003.9 |
| 20260504191604 | 29 | 146 | 1.6 | 8.0 | 0.00 | 0.00 | 0.00 | 30 | 1004.1 |
| 20260504190118 | 28 | 0 | 1.6 | 6.4 | 0.00 | 0.00 | 0.00 | 33 | 1004.3 |
| 20260504184602 | 29 | 100 | 3.2 | 9.7 | 0.00 | 0.00 | 0.00 | 29 | 1004.3 |
| 20260504183103 | 30 | 158 | 1.6 | 12.9 | 0.00 | 0.00 | 0.00 | 32 | 1004.5 |
| 20260504181606 | 30 | 74 | 1.6 | 6.4 | 0.00 | 0.00 | 0.00 | 31 | 1004.8 |
| 20260504180126 | 28 | 28 | 3.2 | 8.0 | 0.00 | 0.00 | 0.00 | 29 | 1005.1 |
| 20260504174558 | 28 | 300 | 0.0 | 8.0 | 0.00 | 0.00 | 0.00 | 29 | 1005.1 |
| 20260504173108 | 29 | 155 | 1.6 | 3.2 | 0.00 | 0.00 | 0.00 | 31 | 1005.1 |
| 20260504171612 | 27 | 0 | 1.6 | 4.8 | 0.00 | 0.00 | 0.00 | 33 | 1005.2 |
| 20260504160106 | 25 | 220 | 0.0 | 6.4 | 0.00 | 0.00 | 0.00 | 43 | 1005.1 |
| 20260504110109 | 15 | 214 | 0.0 | 6.4 | 0.00 | 0.00 | 0.00 | 62 | 1004.9 |
| 20260504100105 | 16 | 128 | 1.6 | 9.7 | 0.00 | 0.00 | 0.00 | 57 | 1005.6 |
| 20260504081559 | 18 | 222 | 3.2 | 14.5 | 0.00 | 0.00 | 0.00 | 48 | 1006.0 |
| 20260504060104 | 20 | 235 | 3.2 | 16.1 | 0.00 | 0.00 | 0.00 | 41 | 1007.3 |
| 20260504044559 | 20 | 173 | 1.6 | 8.0 | 0.00 | 0.00 | 0.00 | 39 | 1007.7 |
| 20260504043101 | 20 | 181 | 1.6 | 8.0 | 0.00 | 0.00 | 0.00 | 39 | 1007.8 |